Back to catalog

COSMOS 2251 DEB

AliveLEO
NORAD 35465·DEBRIS·🇷🇺 Russia

Launched Jun 16, 1993 from Plesetsk Cosmodrome

Loading…

Next Passes (next 24 hours)

TLE

AgingSource: Space-Track

Epoch: Sep 9, 2026, 17:24 UTC

1 35465U 93036ALK 26252.72537112  .00000862  00000-0  24885-3 0  9995
2 35465  73.9978  51.3068 0063255 148.4159 212.0821 14.44971815911555

Track COSMOS 2251 DEB in real time with AllMySat

Download on the App Store